Oscoda, MI

5:27 PM EDT on August 28, 2016 (GMT -0400)
Oscoda-Wurtsmith

Weather History for KOSC - October, 2011

Change the Weather History Date:

Friday, October 7, 2011

  Actual Average Record
Temperature  
Mean Temperature 60 °F -  
Max Temperature 77 °F 60 °F 89 °F (2007)
Min Temperature 44 °F 40 °F 26 °F (2001)
Degree Days  
Heating Degree Days 4    
Growing Degree Days 10 (Base 50)    
Moisture  
Dew Point 50 °F    
Average Humidity 78    
Maximum Humidity 100    
Minimum Humidity 39    
Precipitation  
Precipitation 0.00 in - - ()
Sea Level Pressure  
Sea Level Pressure 30.33 in    
Wind  
Wind Speed 4 mph (SSW)    
Max Wind Speed 14 mph    
Max Gust Speed 20 mph    
Visibility 8 miles    
Events      
Averages and records for this station are not official NWS values.
T = Trace of Precipitation, MM = Missing Value Source: NWS Daily Summary

Daily Weather History Graph

Daily Weather History Graph

Search for Another Location

Airport or City:

Trip Planner

Search our weather history database for the weather conditions in past years. The results will help you decide how hot, cold, wet, or windy it might be!

Date:

Astronomy

Oct. 07, 2011 Rise Set
Actual Time 7:38 AM EDT 7:03 PM EDT
Civil Twilight 7:09 AM EDT 7:32 PM EDT
Nautical Twilight 6:35 AM EDT 8:06 PM EDT
Astronomical Twilight 6:01 AM EDT 8:40 PM EDT
Moon 4:53 PM EDT (10/7) 3:17 AM EDT (10/7)
Length of Visible Light 12h 23m
Length of Day
11h 25m
Waxing Gibbous, 83% of the Moon is Illuminated
Oct 7
Waxing Gibbous
Oct 11
Full
Oct 19
Last Quarter
Oct 26
New
Nov 2
First Quarter

Hourly Weather History & Observations

Time (EDT) Temp. Windchill Dew Point Humidity Pressure Visibility Wind Dir Wind Speed Gust Speed Precip Events Conditions
12:14 AM 46.4 °F - 44.6 °F 93% 30.30 in 7.0 mi Calm Calm - N/A   Clear
12:33 AM 46.4 °F - 46.4 °F 100% 30.29 in 10.0 mi Calm Calm - N/A   Clear
12:54 AM 46.4 °F - 44.6 °F 93% 30.30 in 10.0 mi Calm Calm - N/A   Clear
1:14 AM 46.4 °F - 42.8 °F 87% 30.29 in 10.0 mi Calm Calm - N/A   Clear
1:33 AM 46.4 °F - 44.6 °F 93% 30.29 in 7.0 mi Calm Calm - N/A   Scattered Clouds
1:54 AM 46.4 °F 45.2 °F 42.8 °F 87% 30.30 in 10.0 mi WSW 3.5 mph - N/A   Clear
2:13 AM 44.6 °F 43.1 °F 42.8 °F 93% 30.30 in 10.0 mi WSW 3.5 mph - N/A   Clear
2:33 AM 44.6 °F 43.1 °F 42.8 °F 93% 30.30 in 10.0 mi WSW 3.5 mph - N/A   Scattered Clouds
2:54 AM 44.6 °F 43.1 °F 42.8 °F 93% 30.30 in 10.0 mi WSW 3.5 mph - N/A   Scattered Clouds
3:14 AM 44.6 °F 42.2 °F 44.6 °F 100% 30.30 in 10.0 mi SSW 4.6 mph - N/A   Clear
3:33 AM 46.4 °F 43.5 °F 44.6 °F 93% 30.30 in 7.0 mi SW 5.8 mph - N/A   Clear
3:54 AM 50.0 °F - 50.0 °F 100% 30.30 in 4.0 mi SW 5.8 mph - N/A   Clear
4:13 AM 50.0 °F - 50.0 °F 100% 30.30 in 7.0 mi SW 5.8 mph - N/A   Clear
4:33 AM 50.0 °F - 50.0 °F 100% 30.31 in 5.0 mi SW 6.9 mph - N/A   Clear
4:54 AM 50.0 °F - 50.0 °F 100% 30.31 in 5.0 mi SW 5.8 mph - N/A   Clear
5:14 AM 48.2 °F - 46.4 °F 93% 30.31 in 4.0 mi SW 5.8 mph - N/A   Clear
5:33 AM 46.4 °F 44.3 °F 46.4 °F 100% 30.32 in 3.0 mi SW 4.6 mph - N/A   Clear
5:54 AM 48.2 °F - 48.2 °F 100% 30.32 in 4.0 mi SSW 5.8 mph - N/A   Scattered Clouds
6:14 AM 50.0 °F - 48.2 °F 94% 30.32 in 2.0 mi SW 5.8 mph - N/A   Clear
6:33 AM 48.2 °F - 46.4 °F 93% 30.32 in 3.0 mi SW 6.9 mph - N/A   Clear
6:54 AM 46.4 °F 42.9 °F 44.6 °F 93% 30.33 in 2.5 mi SW 6.9 mph - N/A   Clear
7:13 AM 48.2 °F - 46.4 °F 93% 30.33 in 3.0 mi SW 6.9 mph - N/A   Clear
7:33 AM 48.2 °F - 48.2 °F 100% 30.34 in 2.5 mi SW 6.9 mph - N/A   Clear
7:54 AM 48.2 °F - 48.2 °F 100% 30.35 in 2.5 mi SW 6.9 mph - N/A   Clear
8:13 AM 50.0 °F - 50.0 °F 100% 30.35 in 3.0 mi SSW 5.8 mph - N/A   Clear
8:33 AM 51.8 °F - 50.0 °F 94% 30.36 in 2.5 mi SW 6.9 mph - N/A   Clear
8:54 AM 51.8 °F - 51.8 °F 100% 30.37 in 2.5 mi SW 3.5 mph - N/A   Clear
9:13 AM 53.6 °F - 51.8 °F 94% 30.37 in 4.0 mi Calm Calm - N/A   Clear
9:33 AM 55.4 °F - 53.6 °F 94% 30.38 in 7.0 mi SSW 4.6 mph - N/A   Clear
9:54 AM 59.0 °F - 53.6 °F 82% 30.38 in 10.0 mi SSW 4.6 mph - N/A   Clear
10:14 AM 60.8 °F - 55.4 °F 82% 30.38 in 7.0 mi SSW 5.8 mph - N/A   Clear
10:33 AM 62.6 °F - 55.4 °F 77% 30.38 in 10.0 mi South 6.9 mph - N/A   Clear
10:54 AM 64.4 °F - 55.4 °F 73% 30.38 in 10.0 mi SSW 4.6 mph - N/A   Clear
11:13 AM 68.0 °F - 55.4 °F 64% 30.38 in 10.0 mi SSW 8.1 mph - N/A   Clear
11:33 AM 68.0 °F - 53.6 °F 60% 30.38 in 10.0 mi SSW 6.9 mph - N/A   Clear
11:54 AM 69.8 °F - 53.6 °F 56% 30.37 in 10.0 mi South 9.2 mph - N/A   Clear
12:13 PM 69.8 °F - 55.4 °F 60% 30.37 in 10.0 mi SSW 5.8 mph - N/A   Clear
12:34 PM 71.6 °F - 55.4 °F 57% 30.36 in 10.0 mi South 5.8 mph - N/A   Clear
12:54 PM 73.4 °F - 53.6 °F 50% 30.35 in 10.0 mi North - - N/A   Clear
1:13 PM 73.4 °F - 53.6 °F 50% 30.35 in 10.0 mi North - - N/A   Clear
1:34 PM 75.2 °F - 53.6 °F 47% 30.34 in 10.0 mi SSW 6.9 mph - N/A   Clear
1:54 PM 75.2 °F - 57.2 °F 53% 30.33 in 10.0 mi South 9.2 mph - N/A   Clear
2:13 PM 73.4 °F - 57.2 °F 57% 30.33 in 10.0 mi South 9.2 mph - N/A   Clear
2:34 PM 73.4 °F - 55.4 °F 53% 30.32 in 10.0 mi SSW 13.8 mph 19.6 mph N/A   Clear
2:54 PM 75.2 °F - 55.4 °F 50% 30.32 in 10.0 mi South 10.4 mph - N/A   Clear
3:13 PM 75.2 °F - 53.6 °F 47% 30.32 in 10.0 mi SSE 9.2 mph - N/A   Clear
3:34 PM 77.0 °F - 53.6 °F 44% 30.31 in 10.0 mi South 8.1 mph - N/A   Clear
3:54 PM 77.0 °F - 50.0 °F 39% 30.31 in 10.0 mi South 10.4 mph 16.1 mph N/A   Clear
4:13 PM 77.0 °F - 51.8 °F 41% 30.31 in 10.0 mi SSW 10.4 mph - N/A   Clear
4:34 PM 77.0 °F - 51.8 °F 41% 30.31 in 10.0 mi SSW 9.2 mph 16.1 mph N/A   Clear
4:53 PM 77.0 °F - 51.8 °F 41% 30.30 in 10.0 mi South 10.4 mph - N/A   Clear
5:13 PM 77.0 °F - 51.8 °F 41% 30.30 in 10.0 mi South 11.5 mph - N/A   Clear
5:34 PM 77.0 °F - 53.6 °F 44% 30.30 in 10.0 mi South 6.9 mph - N/A   Clear
5:53 PM 71.6 °F - 55.4 °F 57% 30.30 in 10.0 mi SE 4.6 mph - N/A   Clear
6:13 PM 69.8 °F - 57.2 °F 64% 30.29 in 10.0 mi SE 3.5 mph - N/A   Clear
6:34 PM 68.0 °F - 57.2 °F 68% 30.29 in 10.0 mi SE 4.6 mph - N/A   Clear
6:53 PM 66.2 °F - 55.4 °F 68% 30.29 in 10.0 mi SSE 5.8 mph - N/A   Clear
7:13 PM 64.4 °F - 55.4 °F 73% 30.30 in 10.0 mi South 3.5 mph - N/A   Clear
7:34 PM 64.4 °F - 55.4 °F 73% 30.30 in 10.0 mi Calm Calm - N/A   Clear
7:53 PM 60.8 °F - 55.4 °F 82% 30.30 in 10.0 mi Calm Calm - N/A   Clear
8:14 PM 59.0 °F - 55.4 °F 88% 30.31 in 10.0 mi SW 3.5 mph - N/A   Clear
8:34 PM 60.8 °F - 55.4 °F 82% 30.31 in 10.0 mi SSW 5.8 mph - N/A   Clear
8:53 PM 59.0 °F - 53.6 °F 82% 30.31 in 10.0 mi SSW 3.5 mph - N/A   Clear
9:13 PM 57.2 °F - 53.6 °F 88% 30.31 in 10.0 mi South 3.5 mph - N/A   Clear
9:34 PM 55.4 °F - 53.6 °F 94% 30.31 in 10.0 mi SSW 4.6 mph - N/A   Clear
9:53 PM 60.8 °F - 53.6 °F 77% 30.31 in 10.0 mi SSW 5.8 mph - N/A   Clear
10:14 PM 62.6 °F - 53.6 °F 72% 30.30 in 10.0 mi SSW 8.1 mph - N/A   Clear
10:33 PM 62.6 °F - 53.6 °F 72% 30.30 in 10.0 mi SSW 10.4 mph - N/A   Clear
10:53 PM 60.8 °F - 53.6 °F 77% 30.31 in 10.0 mi SSW 6.9 mph - N/A   Clear
11:14 PM 60.8 °F - 53.6 °F 77% 30.31 in 10.0 mi SSW 9.2 mph - N/A   Clear
11:34 PM 62.6 °F - 53.6 °F 72% 30.31 in 10.0 mi South 10.4 mph - N/A   Clear
11:53 PM 62.6 °F - 53.6 °F 72% 30.31 in 10.0 mi SSW 11.5 mph - N/A   Clear